Home   Weather   Utah   Past weeks
Flag for USA

Past Weather in Utah, Utah, USA — Yesterday and Last 2 Weeks

Now
42 °F

Broken clouds.


Feels Like: 37 °F
Forecast: 47 / 31 °F
Wind: 8 mph from Southwest

Location: Provo Municipal

Current Time: Mar 28, 2020 at 3:08:48 pm

Latest Report: Mar 28, 2020 at 1:56 pm


Visibility: 10 mi

Pressure: 30.16 "Hg

Humidity: 62%

Dew Point: 30 °F

Location of UtahLocation

Past Weather in Utah — Graph

°F

Utah Temperature Yesterday

Maximum temperature yesterday: 43 °F (at 4:32 pm)
Minimum temperature yesterday: 29 °F (at 2:56 am)
Average temperature yesterday: 36 °F

High & Low Weather Summary for the Past Weeks

 TemperatureHumidityPressure
High63 °F (Mar 17, 5:56 pm)100% (Mar 13, 3:11 pm)30.24 "Hg (Mar 13, 3:11 pm)
Low29 °F (Mar 27, 2:56 am)21% (Mar 17, 3:56 pm)29.64 "Hg (Mar 17, 5:56 pm)
Average43 °F66%29.92 "Hg
* Reported Mar 13 1:35 pm — Mar 28 1:56 pm, Utah. Weather by CustomWeather, © 2020

Note: Actual official high and low records may vary slightly from our data, if they occured in-between our weather recording intervals... More about our weather records

Utah Weather History for the Previous 24 Hours

Scroll right to see more
 ConditionsComfort  
Time TempWeatherWind HumidityBarometerVisibility
1:56 pm
Sat, Mar 28
42 °FBroken clouds.8 mph62%30.16 "Hg10 mi
12:56 pm43 °FBroken clouds.7 mph51%30.15 "Hg10 mi
11:56 am41 °FMore clouds than sun.7 mph55%30.15 "Hg10 mi
10:57 am40 °FBroken clouds.No wind60%30.15 "Hg10 mi
10:56 am40 °FMostly cloudy.No wind60%30.15 "Hg10 mi
9:56 am39 °FPartly sunny.3 mph67%30.15 "Hg10 mi
8:56 am37 °FPartly sunny.6 mph76%30.14 "Hg10 mi
7:56 am36 °FBroken clouds.7 mph75%30.12 "Hg10 mi
6:56 am36 °FMostly cloudy.9 mph75%30.11 "Hg10 mi
6:17 am36 °FOvercast.9 mph75%30.08 "Hg10 mi
5:56 am36 °FMostly cloudy.10 mph79%30.09 "Hg10 mi
5:34 am36 °FMostly cloudy.8 mph81%30.07 "Hg10 mi
5:20 am36 °FOvercast.6 mph75%30.07 "Hg10 mi
4:56 am34 °FOvercast.8 mph85%30.08 "Hg10 mi
3:56 am33 °FLight rain. Mostly cloudy.8 mph85%30.07 "Hg10 mi
2:56 am32 °FMostly cloudy.9 mph85%30.07 "Hg10 mi
1:56 am32 °FLight snow. Ice fog.8 mph85%30.06 "Hg4 mi
12:56 am37 °FOvercast.9 mph52%30.02 "Hg10 mi
11:56 pm
Fri, Mar 27
38 °FOvercast.3 mph46%30.01 "Hg10 mi
10:56 pm38 °FMostly cloudy.6 mph39%30.01 "Hg10 mi
9:56 pm37 °FPassing clouds.6 mph36%30.01 "Hg10 mi
8:56 pm37 °FPassing clouds.6 mph37%29.99 "Hg10 mi
7:56 pm38 °FPartly cloudy.10 mph33%29.98 "Hg10 mi
6:56 pm40 °FBroken clouds.9 mph38%29.96 "Hg10 mi
5:56 pm41 °FBroken clouds.14 mph35%29.93 "Hg10 mi
4:56 pm42 °FScattered clouds.17 mph41%29.91 "Hg10 mi
4:32 pm43 °FPartly sunny.12 mph42%29.88 "Hg10 mi
3:56 pm42 °FPartly sunny.15 mph38%29.89 "Hg7 mi
Weather by CustomWeather, © 2020

See weather overview

Advertising